This is the latest recevied weather packets stored in our database for station/object KC8BSD. If no packets are shown the sender has not sent any weather packets the latest 10 day(s).
| Time | Temp. | Humidity | Pressure | Rain* | Wind** | Luminosity | Snow |
|---|---|---|---|---|---|---|---|
| 1777512955 | 6.67° C | 92% | 1014.5 hPa | 1.78 mm | - | 0 W/m² | - |
| 1777512651 | 6.67° C | 91% | 1014.6 hPa | 1.78 mm | - | 0 W/m² | - |
| 1777512349 | 6.67° C | 91% | 1014.5 hPa | 0 mm | - | 0 W/m² | - |
| 1777512045 | 6.67° C | 91% | 1014.4 hPa | 1.27 mm | - | 0 W/m² | - |
| 1777511744 | 6.67° C | 91% | 1014.3 hPa | 3.05 mm | - | 0 W/m² | - |
| 1777511440 | 6.67° C | 91% | 1014.1 hPa | 1.78 mm | - | 0 W/m² | - |
| 1777511137 | 6.67° C | 91% | 1014.3 hPa | 0 mm | - | 0 W/m² | - |
| 1777510833 | 7.22° C | 91% | 1014.1 hPa | 1.27 mm | - | 0 W/m² | - |
| 1777510530 | 7.22° C | 91% | 1014.1 hPa | 0 mm | - | 0 W/m² | - |
| 1777510226 | 7.22° C | 91% | 1013.8 hPa | 0 mm | - | 0 W/m² | - |
| 1777509923 | 7.78° C | 92% | 1013.8 hPa | 0 mm | - | 0 W/m² | - |
| 1777509618 | 7.78° C | 91% | 1013.9 hPa | 1.78 mm | - | 0 W/m² | - |
| 1777509315 | 7.78° C | 91% | 1013.8 hPa | 1.78 mm | - | 0 W/m² | - |
| 1777509012 | 7.78° C | 91% | 1013.5 hPa | 0 mm | - | 0 W/m² | - |
| 1777508709 | 8.33° C | 90% | 1013.6 hPa | 0 mm | - | 0 W/m² | - |
| 1777508407 | 7.78° C | 90% | 1013.4 hPa | 0 mm | - | 1 W/m² | - |
| 1777508104 | 7.78° C | 89% | 1013.4 hPa | 1.78 mm | - | 1 W/m² | - |
| 1777507800 | 8.33° C | 88% | 1013.3 hPa | 1.78 mm | - | 1 W/m² | - |
| 1777507497 | 7.78° C | 87% | 1013.3 hPa | 0 mm | - | 3 W/m² | - |
| 1777507194 | 8.33° C | 87% | 1013.2 hPa | 0 mm | - | 4 W/m² | - |
| 1777506892 | 8.33° C | 87% | 1013 hPa | 0 mm | - | 6 W/m² | - |
| 1777506589 | 8.33° C | 87% | 1013.1 hPa | 0 mm | - | 6 W/m² | - |
| 1777506284 | 8.89° C | 87% | 1013.1 hPa | 0 mm | - | 9 W/m² | - |
| 1777505981 | 8.89° C | 87% | 1013.3 hPa | 0 mm | - | 6 W/m² | - |
| 1777505676 | 8.89° C | 87% | 1013 hPa | 0 mm | - | 4 W/m² | - |
* Rain latest hour (hover to see other rain measurements)
** Current wind speed in m/s (hover to see current wind gust speed)